Location: Pasarilla del Rebollar
(40.6790°N, 5.0062°W)
Time: 11:24:14
(UTC+00:00)

BREEZE-M DEB (TANK) - Pass Details

Date: 22 April 2026
Orbit: 340 x 15825 km, 49.4° (Epoch: 15 May)

Event Time Altitude Azimuth Distance (km) Brightness Sun altitude
Rises 04:36:33 0° 300° (WNW) 6,209 7.3 -10.5°
Reaches altitude 10° 04:42:17 10° 301° (WNW) 3,638 6.2 -9.5°
Maximum altitude 04:49:13 87° 29° (NNE) 596 2.5 -8.3°
Drops below altitude 10° 04:51:56 10° 121° (ESE) 1,460 5.0 -7.8°
Sets 04:53:20 0° 122° (ESE) 2,167 5.9 -7.6°
